CZ-4 DEB, 27678

Orbit data source: Space-Track

CZ-4 DEB, 27678 is space debris in SSO originally from a launch on Thu, 14 Oct 1999 UTC launched from the Taiyaun Space Center, China (TSC). Debris objects in space refer to the collection of defunct objects orbiting the Earth. Examples of debris include non-operational satellites, rocket bodies, and fragments generated from explosions, collisions, or faulty payload assembly.

Loading next visibility...
Identifier
27678, 1999-057MS
Orbit
SSO
Country
Flag of CNCN / PRC
Related business
Manufacturer
Unknown
Mission
Spacecraft
Bus & Motor
Unknown
Mass
Unknown
Launch date (UTC)
1999-10-14 (26 years ago)
Launch vehicle
Unknown
Launch site
Taiyaun Space Center, China (TSC)
Object type
Payload
Rocket body
Debris
Shape & HBR
Unknown shape, 0.1 m
Radar Cross Section
Small (<0.1 m²)

Expand to show TLE details & history
Last TLE update: 22 hours ago

TLE from 22 hours ago
0 CZ-4 DEB
1 27678U 99057MS  25348.85738477  .00000250  00000-0  10068-3 0  9996
2 27678  98.8617  19.7607 0106535 201.1473 341.0065 14.33820645230694
Epoch: 2025-12-14T20:34Z
TLE epoch observation values (Epoch: 2025-12-14T20:34:38.044Z)
Latitude
-1.85964°
Longitude
167.04942°
Altitude
710.154 km
Speed
7.538 km/s
True Right ascension
13h 17m 53s
True Declination
-1° 50' 54"
Sunlit
Object was in daylight at epoch
Visualization orbit readout
Latitude
Unknown
Longitude
Unknown
Altitude
Unknown
Speed
Unknown
Apparent Right ascension
Unknown
Apparent Declination
Unknown
Sunlit
N/A
Visualization observer readout
Local Sidereal Time
17:40:59
Azimuth
Unknown
Elevation
Unknown
Doppler factor
Unknown
Orbital elements
Apogee altitude
852.353 km
Perigee altitude
699.917 km
Semi-major axis
7,154.272 km
Eccentricity
0.01065
Inclination
98.8617°
RAAN
19.7607°
Arg. of periapsis
201.1473°
True anomaly
340.60412°
Mean anomaly
341.0065°
Eccentric anomaly
340.80582°
Mean motion
3.5867 °/min
Orbital period
100.37 mins
BSTAR
0.00010068
Loading maneuver chart data...
Computing Atmospheric mass density...
Loading historical data...
Loading historical data...
Loading historical data...
Loading historical data...
Loading historical data...
Loading historical data...
Loading historical data...

Documentation

Showing up to 5 results
|